Zurück zum Katalog

TIANHUI 4B

AktivWissenschaftPO
NORAD 50573·PAYLOAD·🇨🇳 China

Gestartet Dec 29, 2021 von Jiuquan Satellite Launch Center

Loading…

Nächste Überflüge (nächste 24 Stunden)

TLE

AktuellSource: Space-Track

Epoche: Sep 14, 2026, 10:16 UTC

1 50573U 21134B   26257.42791234  .00004667  00000-0  89873-4 0  9997
2 50573  88.9684 309.9944 0010667  81.9150 278.3320 15.47560939263631

Verfolge TIANHUI 4B in Echtzeit mit AllMySat

Download on the App Store